EHI
5 8 12 14 16 19 19 17 16 17 16 14 12 11 10 8 7 6 5 4 3 4 7 7 8 7 7 7 6 3 1 0 0 0 0 0 1 0 0 0 1 0 0
8 10 12 13 16 19 20 18 17 17 16 15 13 12 10 9 9 8 7 5 4 5 7 9 9 8 8 8 7 5 2 1 0 0 0 1 1 1 0 1 2 1 1
9 11 13 13 15 17 18 17 16 16 15 14 13 11 10 10 11 10 9 7 6 6 8 11 11 9 9 9 9 8 6 4 2 2 2 2 2 1 1 2 3 3 2
10 12 14 14 14 14 14 15 15 14 14 13 12 11 11 11 11 11 10 9 8 7 8 10 11 10 9 9 9 8 8 7 5 5 5 5 3 3 3 3 3 3 3
11 13 15 16 13 11 12 15 16 15 14 14 12 12 12 11 10 9 9 8 7 7 7 8 9 10 9 8 8 8 8 9 8 6 6 6 6 5 4 4 4 3 2
11 13 17 18 16 13 14 17 19 18 16 14 12 11 11 11 9 9 8 7 6 6 6 7 8 8 8 8 9 9 10 11 10 8 7 7 6 6 5 6 6 4 2
11 13 16 19 20 20 18 18 19 19 17 13 10 9 8 8 8 9 9 9 7 7 7 7 7 7 7 8 9 10 12 12 11 9 8 7 7 7 7 7 6 4 2
10 10 11 14 19 23 21 18 20 19 15 10 9 8 7 6 7 8 9 10 9 8 7 7 7 7 7 9 11 12 13 13 12 10 9 8 7 7 8 7 4 2 2
6 6 5 7 13 19 20 18 20 21 16 12 11 11 9 8 7 6 6 9 10 9 8 9 9 8 8 9 12 13 13 14 13 12 11 10 8 8 8 7 4 3 4
4 4 4 5 9 14 17 19 22 25 22 18 15 14 12 11 10 8 9 12 13 12 12 12 12 10 9 9 10 11 12 13 13 12 11 10 9 9 8 8 7 7 7
5 5 6 8 10 13 17 21 25 27 26 22 18 16 15 13 13 14 15 19 21 20 18 15 13 11 10 9 8 8 9 10 10 10 10 10 10 10 10 10 11 11 11
5 7 10 12 14 16 19 23 26 26 25 22 21 19 16 15 16 18 19 21 22 21 19 15 12 11 10 9 9 8 8 7 7 8 9 10 10 11 11 12 12 13 13
8 10 13 15 18 20 21 22 22 22 21 20 21 21 18 16 16 16 15 16 16 14 13 12 10 10 10 9 9 9 8 8 7 8 10 11 11 10 11 12 11 12 13
14 15 15 15 16 19 19 18 17 18 18 18 20 21 20 17 13 10 9 10 9 7 7 8 8 8 7 8 8 8 7 7 8 9 10 11 10 10 10 10 11 12 13
17 17 16 15 16 17 15 13 14 16 17 17 19 22 22 19 13 10 9 10 9 7 6 6 7 5 4 4 5 6 5 6 6 8 10 10 9 9 8 7 8 9 11
15 16 16 16 17 17 15 13 13 15 17 18 19 21 22 20 17 14 13 14 12 10 7 6 5 3 1 1 2 3 4 4 5 7 8 8 8 7 5 4 3 4 4
12 14 15 16 16 17 16 15 15 16 18 19 19 19 20 19 18 17 18 17 15 12 10 7 5 3 1 0 1 1 3 4 6 7 7 7 7 8 8 6 4 3 2
13 14 14 14 14 14 15 16 17 19 21 20 18 17 17 17 17 19 20 19 16 13 12 11 9 6 3 0 0 1 3 6 7 7 7 7 8 9 11 11 9 6 5
16 15 13 13 14 14 15 18 19 21 24 22 18 18 19 18 18 19 21 19 16 12 12 13 13 11 7 3 1 2 6 8 9 9 8 8 8 8 9 9 8 6 5
16 15 13 14 17 18 19 21 22 24 25 23 20 20 22 22 21 21 20 18 14 11 11 13 14 14 12 6 2 3 7 9 9 10 10 8 6 3 3 4 4 3 3
14 14 14 17 19 20 22 22 22 25 25 24 23 22 22 22 22 22 21 18 15 12 13 13 12 14 13 8 2 2 5 7 8 10 11 8 3 1 0 1 2 1 1
13 13 15 17 17 18 19 20 21 23 25 25 24 23 21 20 21 22 23 21 19 15 14 13 12 14 13 8 3 1 2 5 8 10 9 5 1 0 0 0 0 0 0
13 13 15 17 17 16 16 18 18 20 24 25 25 24 22 21 20 21 22 23 22 19 16 14 14 15 14 11 6 3 2 3 6 7 5 2 0 0 0 0 0 0 0
13 14 16 18 18 16 16 17 18 19 22 24 25 24 23 22 20 19 19 21 22 21 19 17 17 17 18 16 11 8 5 3 3 3 2 0 0 0 0 0 0 0 0
13 14 15 17 17 16 16 16 17 18 20 21 21 20 20 21 21 19 17 17 19 20 19 18 18 18 18 15 11 10 8 4 2 1 0 0 0 0 0 0 0 0 0
13 13 14 15 15 16 15 14 15 16 18 18 18 17 18 20 21 21 17 15 16 17 16 16 18 18 16 11 8 7 6 3 1 0 0 0 0 0 0 0 0 0 0
Wind_Speed
7 7 7 7 7 6 6 5 4 4 4 3 3 3 2 2 2 2 2 1 0 1 1 0 1 1 0 1 1 1 2 1 1 3 2 2 3 2 2 2 2 1 2
7 7 7 7 7 7 7 6 6 5 5 3 2 2 1 2 1 1 2 1 1 1 1 1 1 0 1 1 1 2 2 1 1 3 3 2 3 3 2 2 2 2 2
8 8 8 7 7 7 7 6 5 5 4 4 4 3 3 2 2 2 2 1 1 1 1 1 1 1 2 1 2 2 2 2 1 2 3 3 1 1 2 1 1 2 2
8 8 8 8 8 7 7 6 6 5 5 5 3 3 2 2 1 1 1 1 1 1 1 1 1 2 2 1 3 1 2 2 2 1 2 3 3 3 1 1 1 1 2
7 8 8 8 7 7 7 6 6 5 5 4 4 4 3 2 1 1 1 1 1 1 1 1 1 2 2 2 3 2 3 2 3 2 2 2 2 4 3 2 1 1 1
7 8 8 8 7 7 7 7 6 6 5 5 4 4 3 2 1 1 1 1 1 1 1 1 2 2 2 2 2 3 3 2 3 3 3 3 3 3 3 3 3 2 1
8 8 9 9 8 8 7 7 7 6 5 5 5 4 4 3 3 2 1 1 1 1 1 1 2 2 2 2 2 2 3 3 3 4 3 3 3 3 3 4 3 3 2
8 8 9 8 8 8 8 7 7 6 6 5 4 4 4 3 2 2 1 1 1 1 0 1 2 2 2 2 2 3 3 2 3 4 3 3 3 3 3 4 4 4 3
8 8 8 8 8 8 8 7 7 6 6 5 4 4 4 3 2 2 3 2 1 1 1 2 1 2 2 2 3 2 2 3 3 3 3 4 3 3 3 4 5 5 4
8 8 8 8 7 8 8 7 7 7 6 5 4 4 3 3 2 2 1 1 1 1 1 2 2 2 2 2 3 2 2 3 3 3 3 4 3 3 3 4 4 4 5
7 7 7 7 7 8 8 8 7 7 6 5 4 3 3 3 3 2 2 2 2 2 2 2 2 2 2 2 2 3 2 3 3 3 3 3 4 4 3 3 4 4 4
5 7 7 7 7 8 8 8 7 7 6 5 5 4 3 3 3 3 2 2 3 3 3 3 3 3 2 2 2 3 2 3 3 3 3 4 3 4 4 3 4 4 3
5 6 7 7 6 6 6 7 7 6 6 6 5 4 4 3 3 2 2 2 2 3 3 3 3 3 2 3 2 3 3 3 4 4 4 4 4 4 4 5 4 4 3
5 5 6 6 6 5 5 5 6 6 5 5 5 5 5 4 4 3 3 3 3 3 3 3 3 2 3 2 2 3 3 4 4 4 4 4 4 4 5 4 4 4 4
5 5 5 5 5 5 5 4 4 4 4 4 5 4 4 4 4 3 4 4 4 3 3 3 3 3 3 2 2 3 3 3 3 4 4 3 3 4 4 5 4 4 4
4 4 4 4 5 5 4 4 4 4 4 4 4 3 3 4 4 4 4 3 3 3 3 3 3 3 2 2 2 4 3 3 4 4 4 4 3 2 3 4 5 5 5
4 4 3 3 3 4 4 4 3 3 4 4 3 3 4 4 4 4 4 4 4 4 4 4 4 4 2 0 1 3 5 4 4 4 4 4 2 3 4 3 4 4 5
3 3 3 2 2 3 4 3 3 3 4 4 4 4 4 4 4 4 4 4 4 4 4 4 4 4 2 1 2 3 5 4 4 4 5 5 4 3 4 4 4 4 3
3 2 2 2 2 2 3 4 4 4 4 3 3 4 4 4 4 4 4 4 4 4 4 4 4 4 2 2 2 3 4 3 4 4 3 4 4 2 3 4 4 3 3
3 2 2 2 2 1 2 4 4 4 4 3 3 3 4 4 4 4 4 4 3 4 4 3 4 4 3 2 2 3 4 3 3 3 3 1 2 2 2 3 3 3 3
2 2 1 1 1 1 2 3 3 4 3 3 3 3 4 4 4 4 3 3 4 4 4 3 3 3 3 3 3 2 3 3 3 3 2 0 2 1 2 4 3 3 3
2 1 1 0 1 1 2 2 2 2 2 3 3 3 4 4 3 3 4 4 4 4 4 3 4 3 3 2 3 3 4 5 4 3 2 1 2 1 2 2 1 2 4
1 0 1 0 0 1 2 2 2 2 2 3 4 4 4 4 4 4 4 4 4 4 4 4 4 3 2 3 4 5 5 4 4 2 2 1 2 3 3 3 3 3 3
1 1 1 1 1 1 2 2 2 2 3 4 4 4 4 4 4 4 4 4 4 4 4 4 4 3 2 2 2 3 4 4 3 2 1 4 3 2 1 1 3 2 1
1 2 2 1 1 1 2 2 2 2 3 4 4 4 4 3 3 3 2 3 2 2 3 3 3 3 2 0 2 2 2 2 1 2 2 1 1 1 1 1 1 1 1
2 2 3 2 2 2 1 1 1 2 2 3 4 3 3 3 3 3 2 1 2 2 3 2 3 2 1 1 1 2 2 3 2 3 2 2 2 2 1 1 1 1 1
Wind_Direction
169 166 171 171 167 166 168 170 172 169 177 169 173 172 159 157 142 138 121 130 151 161 226 254 144 237 245 279 250 266 231 242 273 273 249 213 206 207 210 228 244 207 212
171 170 176 174 173 170 172 174 177 177 184 166 171 166 164 164 141 127 119 158 186 230 200 200 248 225 230 238 259 264 287 283 261 288 287 241 187 185 196 212 219 246 229
181 175 178 177 175 175 178 178 178 178 180 177 177 168 169 183 163 162 165 172 193 214 262 237 279 287 269 265 261 249 250 274 274 285 295 301 317 312 166 192 213 229 238
185 177 176 178 180 180 175 174 176 178 176 185 188 195 189 187 166 175 155 176 202 220 228 238 243 266 279 283 264 245 266 266 277 256 273 301 324 295 267 190 174 215 231
178 174 173 173 175 175 173 168 170 176 179 185 182 202 205 192 177 169 157 216 181 215 237 236 241 238 255 274 287 294 276 267 277 282 273 268 256 257 274 279 267 231 226
172 168 167 164 168 168 171 171 170 177 180 185 187 200 201 201 196 205 198 221 192 198 199 229 251 252 263 263 263 267 249 271 289 290 283 271 274 273 269 268 260 258 247
169 166 167 167 170 172 175 174 172 176 180 185 193 198 202 203 207 226 206 250 235 214 187 263 263 272 262 263 267 255 274 259 260 268 274 275 277 278 273 269 269 266 257
171 169 170 171 173 174 175 175 175 175 178 183 189 195 201 214 204 214 247 225 260 261 184 241 254 271 277 271 262 257 255 263 265 270 273 268 271 274 269 270 273 269 258
172 170 170 173 174 174 175 176 174 174 177 178 179 186 191 211 208 201 219 210 214 226 207 237 250 268 267 273 270 271 274 278 269 266 252 258 266 266 272 270 267 271 271
172 168 167 171 172 172 171 173 172 173 173 173 184 173 179 193 206 221 211 231 227 241 233 242 255 263 259 258 263 258 268 272 275 280 287 281 277 276 267 267 272 271 272
161 161 160 161 163 161 162 166 168 168 169 169 171 170 172 182 196 195 206 213 222 218 226 239 252 259 265 263 263 271 266 274 287 286 277 276 288 288 279 270 269 265 262
151 153 153 154 159 161 162 165 168 169 168 165 169 169 166 178 199 196 205 212 220 226 223 233 241 250 259 258 257 272 285 281 287 289 289 286 278 276 278 278 272 271 263
140 146 148 154 158 158 161 161 167 166 165 163 169 169 176 185 199 202 205 212 221 233 233 230 240 257 268 265 263 274 281 280 287 289 288 291 292 286 289 283 281 276 263
140 146 146 148 150 153 157 165 172 166 167 170 174 179 190 197 201 204 206 213 219 226 235 239 244 253 262 268 274 271 273 281 289 293 292 291 290 287 287 280 278 279 274
142 145 147 147 152 154 159 167 175 171 174 181 189 194 199 198 203 208 212 215 222 227 227 240 242 252 252 267 292 281 285 289 283 283 288 292 303 320 303 300 297 283 274
143 142 149 152 157 158 158 162 176 176 181 191 197 198 203 204 210 216 215 214 222 231 232 238 245 253 272 47 353 302 289 282 281 286 285 274 259 275 266 286 299 297 284
143 148 152 159 166 164 163 172 180 182 188 196 203 206 208 211 217 222 215 219 225 229 234 240 244 250 259 126 275 288 282 278 279 281 283 285 295 276 283 261 243 251 260
138 142 151 162 171 169 169 176 186 187 197 203 211 215 217 220 222 222 226 228 232 234 236 241 244 252 248 169 246 281 266 273 273 273 272 277 286 298 302 289 285 286 283
125 133 155 161 160 173 170 174 190 191 201 206 214 218 220 221 220 223 229 230 232 235 241 242 241 244 240 171 214 267 263 261 270 273 273 278 281 350 326 288 286 287 276
120 133 154 148 140 163 185 192 196 201 215 222 224 222 223 224 224 227 232 234 233 233 240 239 240 245 249 167 178 252 263 267 272 265 261 272 308 38 331 289 283 284 298
108 120 134 117 109 161 207 218 215 221 227 229 229 224 225 227 225 226 226 222 228 233 239 241 244 243 243 161 157 235 268 280 276 278 274 69 104 52 311 296 292 304 303
120 133 132 105 95 212 225 232 239 247 236 231 231 230 228 231 220 219 218 219 225 225 227 232 240 232 217 197 180 197 256 299 281 286 296 59 136 241 267 273 309 289 270
58 221 193 197 211 255 258 257 266 259 241 230 229 230 228 225 218 218 217 216 219 233 230 228 234 233 217 177 178 200 228 262 275 306 19 54 208 234 229 211 211 232 251
293 274 240 247 268 275 272 275 271 251 236 232 231 230 228 224 219 226 220 221 223 230 238 240 240 233 223 218 191 201 205 209 227 253 181 186 208 246 304 225 220 242 305
295 282 269 262 275 296 289 284 275 253 240 239 237 236 230 224 224 224 236 234 226 233 244 252 251 245 235 21 359 289 271 272 248 242 229 233 213 225 250 274 293 299 292
274 269 268 269 275 285 284 280 267 255 245 238 239 243 236 222 225 216 201 70 220 170 198 242 259 265 268 144 185 247 266 266 238 236 224 238 256 269 279 279 271 267 293